This is the latest recevied weather packets stored in our database for station/object N9BID. If no packets are shown the sender has not sent any weather packets the latest 10 day(s).
| Time | Temp. | Humidity | Pressure | Rain* | Wind** | Luminosity | Snow |
|---|---|---|---|---|---|---|---|
| 1777947966 | 7.78° C | 58% | 994.5 hPa | 0 mm | - | 0 W/m² | - |
| 1777947663 | 8.33° C | 59% | 994.4 hPa | 0 mm | - | 0 W/m² | - |
| 1777947359 | 8.33° C | 58% | 994.4 hPa | 0 mm | - | 0 W/m² | - |
| 1777947056 | 8.33° C | 56% | 994 hPa | 0 mm | - | 0 W/m² | - |
| 1777946756 | 8.33° C | 58% | 994 hPa | 0 mm | - | 0 W/m² | - |
| 1777946453 | 8.89° C | 57% | 993.9 hPa | 0 mm | - | 0 W/m² | - |
| 1777946150 | 8.33° C | 58% | 993.9 hPa | 0 mm | - | 0 W/m² | - |
| 1777945847 | 8.89° C | 57% | 993.7 hPa | 0 mm | - | 0 W/m² | - |
| 1777945544 | 8.89° C | 56% | 993.8 hPa | 0 mm | - | 0 W/m² | - |
| 1777945241 | 9.44° C | 57% | 993.6 hPa | 0 mm | - | 0 W/m² | - |
| 1777944938 | 9.44° C | 57% | 993.3 hPa | 0 mm | - | 0 W/m² | - |
| 1777944636 | 9.44° C | 58% | 993.4 hPa | 0 mm | - | 0 W/m² | - |
| 1777944334 | 9.44° C | 57% | 993.4 hPa | 0 mm | - | 0 W/m² | - |
| 1777944030 | 10° C | 59% | 993.2 hPa | 0 mm | - | 0 W/m² | - |
| 1777943725 | 10° C | 57% | 993.5 hPa | 0 mm | - | 0 W/m² | - |
| 1777943423 | 10° C | 57% | 993.1 hPa | 0 mm | - | 4 W/m² | - |
| 1777943118 | 10.56° C | 57% | 993 hPa | 0 mm | - | 8 W/m² | - |
| 1777942815 | 10.56° C | 58% | 992.8 hPa | 0 mm | - | 10 W/m² | - |
| 1777942512 | 11.11° C | 56% | 992.7 hPa | 0 mm | - | 13 W/m² | - |
| 1777942209 | 11.11° C | 56% | 992.7 hPa | 0 mm | - | 16 W/m² | - |
| 1777941906 | 11.11° C | 55% | 992.4 hPa | 0 mm | - | 24 W/m² | - |
| 1777941603 | 11.67° C | 55% | 992.2 hPa | 0 mm | - | 27 W/m² | - |
| 1777941300 | 11.67° C | 53% | 992.4 hPa | 0 mm | - | 32 W/m² | - |
| 1777940996 | 11.67° C | 54% | 992.1 hPa | 0 mm | - | 33 W/m² | - |
| 1777940692 | 11.67° C | 54% | 992.1 hPa | 0 mm | - | 40 W/m² | - |
* Rain latest hour (hover to see other rain measurements)
** Current wind speed in m/s (hover to see current wind gust speed)